Overview Statistics Trail Chart Weather Telemetry Raw packets
 

This is the latest recevied weather packets stored in our database for station/object YO8PIC-13. If no packets are shown the sender has not sent any weather packets the latest 10 day(s).

<< 19 20 21 22 23 24 25 >>
Time Temp. Humidity Pressure Rain* Wind** Luminosity Snow
1788268952 37.78° C 22% 1019.1 hPa - - - -
1788268339 32.22° C 30% 1019.1 hPa - - - -
1788267740 30° C 34% 1019.3 hPa - - - -
1788267139 28.33° C 38% 1019.2 hPa - - - -
1788266540 28.33° C 38% 1019 hPa - - - -
1788265940 27.22° C 40% 1019 hPa - - - -
1788265339 27.22° C 39% 1019 hPa - - - -
1788264742 27.22° C 40% 1019 hPa - - - -
1788264140 27.78° C 38% 1019 hPa - - - -
1788263540 27.78° C 37% 1019 hPa - - - -
1788262939 27.78° C 37% 1018.9 hPa - - - -
1788262340 28.33° C 35% 1018.8 hPa - - - -
1788261739 28.33° C 34% 1018.6 hPa - - - -
1788261139 30.56° C 31% 1018.6 hPa - - - -
1788260541 29.44° C 32% 1018.4 hPa - - - -
1788259939 28.33° C 34% 1018.4 hPa - - - -
1788259340 28.33° C 33% 1018.5 hPa - - - -
1788258739 28.89° C 33% 1018.4 hPa - - - -
1788258140 28.89° C 29% 1018.5 hPa - - - -
1788257540 28.89° C 29% 1018.3 hPa - - - -
1788256940 28.89° C 28% 1018.4 hPa - - - -
1788256340 30° C 28% 1018.4 hPa - - - -
1788255740 28.89° C 29% 1018.3 hPa - - - -
1788255140 28.33° C 30% 1018.2 hPa - - - -
1788254539 28.33° C 29% 1018.1 hPa - - - -

* Rain since midnight (hover to see other rain measurements)
** Current wind speed in m/s (hover to see current wind gust speed)